Location: �clusier
(49.9361°N, 2.7869°E)
Time: 08:52:29
(UTC+00:00)

USA 215 - Pass Details

Date: 16 June 2021
Orbit: 1100 x 1107 km, 123.0° (Epoch: 01 August)

Event Time Altitude Azimuth Distance (km) Brightness Sun altitude
Rises 21:36:05 0° 58° (ENE) 3,923 6.2 -10.9°
Reaches altitude 10° 21:38:49 10° 66° (ENE) 2,963 5.5 -11.1°
Maximum altitude 21:44:46 36° 132° (SE) 1,667 3.8 -11.6°
Drops below altitude 10° 21:50:41 10° 197° (SSW) 2,951 5.1 -12.1°
Sets 21:53:23 0° 206° (SSW) 3,906 5.8 -12.3°
